FW1419 Weather Reports


Display with metric or nautical units.
time (UTC)temp
F
wind
direction
speed
MPH
gust
MPH
rain 1hr
in
rain 24hr
in
rain mn
in
humidity
%
barometer
mb
20260901122330 59 110 0.0 0.0 0.00 0.00 0.00 46 1014.2
20260901121821 59 140 0.0 0.0 0.00 0.00 0.00 47 1014.2
20260901121312 59 140 0.0 0.0 0.00 0.00 0.00 46 1014.2
20260901120822 59 140 0.0 0.0 0.00 0.00 0.00 46 1014.2
20260901120314 59 140 0.0 0.0 0.00 0.00 0.00 47 1014.2
20260901115846 59 140 0.0 0.0 0.00 0.00 0.00 47 1014.1
20260901115321 59 140 0.0 0.0 0.00 0.00 0.00 47 1014.2
20260901114812 59 140 0.0 0.0 0.00 0.00 0.00 48 1014.3
20260901114344 59 140 0.0 0.0 0.00 0.00 0.00 48 1014.2
20260901113814 58 140 0.0 0.0 0.00 0.00 0.00 48 1014.3
20260901113326 59 140 0.0 0.0 0.00 0.00 0.00 47 1014.2
20260901112816 59 140 0.0 0.0 0.00 0.00 0.00 47 1014.3
20260901112348 59 140 0.0 0.0 0.00 0.00 0.00 47 1014.4
20260901111819 59 140 0.0 0.0 0.00 0.00 0.00 46 1014.4
20260901111311 59 140 0.0 0.0 0.00 0.00 0.00 46 1014.5
20260901110827 59 140 0.0 0.0 0.00 0.00 0.00 46 1014.4
20260901110317 59 140 0.0 0.0 0.00 0.00 0.00 46 1014.4
20260901105828 60 140 0.0 0.0 0.00 0.00 0.00 46 1014.4
20260901105340 60 140 0.0 0.0 0.00 0.00 0.00 47 1014.4
20260901104812 60 140 0.0 0.0 0.00 0.00 0.00 46 1014.4
20260901104324 60 140 0.0 0.0 0.00 0.00 0.00 47 1014.4
20260901103815 60 140 0.0 0.0 0.00 0.00 0.00 47 1014.4
20260901103326 60 140 0.0 0.0 0.00 0.00 0.00 48 1014.4
20260901102817 60 140 0.0 0.0 0.00 0.00 0.00 48 1014.3
20260901102328 60 140 0.0 0.0 0.00 0.00 0.00 48 1014.3
20260901101824 60 140 0.0 0.0 0.00 0.00 0.00 47 1014.3
20260901101315 60 140 0.0 0.0 0.00 0.00 0.00 47 1014.4
20260901100826 60 140 0.0 0.0 0.00 0.00 0.00 47 1014.4
20260901100317 60 140 0.0 0.0 0.00 0.00 0.00 47 1014.4
20260901095828 59 120 0.0 0.0 0.00 0.00 0.00 48 1014.4
20260901095338 60 120 0.0 0.0 0.00 0.00 0.00 47 1014.3
20260901094830 60 120 0.0 0.0 0.00 0.00 0.00 47 1014.3
20260901094321 60 120 0.0 0.0 0.00 0.00 0.00 46 1014.2
20260901093813 61 120 0.0 0.0 0.00 0.00 0.00 46 1014.4
20260901093345 61 120 0.0 0.0 0.00 0.00 0.00 47 1014.3
20260901092819 60 120 0.0 0.0 0.00 0.00 0.00 47 1014.3
20260901092330 60 120 0.0 0.0 0.00 0.00 0.00 47 1014.3
20260901091821 60 120 0.0 0.0 0.00 0.00 0.00 47 1014.3
20260901091312 60 120 0.0 0.0 0.00 0.00 0.00 47 1014.3
20260901090845 60 120 0.0 0.0 0.00 0.00 0.00 47 1014.3
20260901090315 61 120 0.0 0.0 0.00 0.00 0.00 46 1014.2
20260901085825 61 120 0.0 0.0 0.00 0.00 0.00 47 1014.3
20260901085316 61 120 0.0 0.0 0.00 0.00 0.00 47 1014.3
20260901084829 61 120 0.0 0.0 0.00 0.00 0.00 47 1014.3
20260901084340 61 120 0.0 0.0 0.00 0.00 0.00 48 1014.5
20260901083814 62 120 0.0 0.0 0.00 0.00 0.00 48 1014.4
20260901083325 62 120 0.0 0.0 0.00 0.00 0.00 48 1014.4
20260901082815 62 120 0.0 0.0 0.00 0.00 0.00 46 1014.5
20260901082328 62 120 0.0 0.0 0.00 0.00 0.00 46 1014.5
20260901081818 63 120 0.0 0.0 0.00 0.00 0.00 45 1014.5
20260901081328 63 120 0.0 0.0 0.00 0.00 0.00 44 1014.5
20260901080820 63 120 0.0 0.0 0.00 0.00 0.00 43 1014.6
20260901080311 63 123 0.0 0.0 0.00 0.00 0.00 43 1014.6
20260901075826 63 146 0.0 0.0 0.00 0.00 0.00 44 1014.7
20260901075317 63 146 0.0 0.0 0.00 0.00 0.00 45 1014.7
20260901074829 63 146 0.0 0.0 0.00 0.00 0.00 44 1014.8
20260901074341 63 146 0.0 0.0 0.00 0.00 0.00 44 1014.8
20260901073832 63 146 0.0 0.0 0.00 0.00 0.00 44 1014.7
20260901073322 63 146 0.0 0.0 0.00 0.00 0.00 43 1014.6
20260901072832 64 146 0.0 0.0 0.00 0.00 0.00 42 1014.6
20260901072323 64 146 0.0 0.0 0.00 0.00 0.00 42 1014.5
20260901071815 64 146 0.0 0.0 0.00 0.00 0.00 42 1014.5
20260901071326 64 146 0.0 0.0 0.00 0.00 0.00 43 1014.6
20260901070818 64 146 0.0 0.0 0.00 0.00 0.00 44 1014.6
20260901070313 64 146 0.0 0.0 0.00 0.00 0.00 44 1014.6
20260901065844 64 146 0.0 0.0 0.00 0.00 0.00 45 1014.4
20260901065333 64 146 0.0 0.0 0.00 0.00 0.00 45 1014.4
20260901064824 64 146 0.0 0.0 0.00 0.00 0.00 45 1014.4
20260901064313 65 146 0.0 0.0 0.00 0.00 0.00 44 1014.4
20260901063825 66 146 0.0 0.0 0.00 0.00 0.00 43 1014.1
20260901063337 66 146 0.0 0.0 0.00 0.00 0.00 44 1014.3
20260901062827 66 146 0.0 0.0 0.00 0.00 0.00 44 1014.3
20260901062337 67 146 0.0 0.0 0.00 0.00 0.00 44 1014.2
20260901061828 67 146 0.0 0.0 0.00 0.00 0.00 44 1014.2
20260901061340 67 304 0.0 0.0 0.00 0.00 0.00 44 1014.1
20260901060829 67 304 0.0 0.0 0.00 0.00 0.00 43 1014.1
20260901060325 68 304 0.0 0.0 0.00 0.00 0.00 41 1014.1
20260901055816 68 304 0.0 0.0 0.00 0.00 0.00 40 1014.2
20260901055347 68 304 0.0 0.0 0.00 0.00 0.00 38 1014.3
20260901054817 69 304 0.0 0.0 0.00 0.00 0.00 38 1014.4
20260901054329 69 304 0.0 0.0 0.00 0.00 0.00 38 1014.3
20260901053821 69 304 0.0 0.0 0.00 0.00 0.00 39 1014.3
20260901053332 70 155 0.0 0.0 0.00 0.00 0.00 41 1014.2
20260901052844 70 155 0.0 0.0 0.00 0.00 0.00 41 1014.1
20260901052315 70 155 0.0 0.0 0.00 0.00 0.00 40 1014.2
20260901051847 70 155 0.0 0.0 0.00 0.00 0.00 39 1014.2
20260901051318 70 155 0.0 0.0 0.00 0.00 0.00 40 1014.2
20260901050812 70 155 0.0 0.0 0.00 0.00 0.00 38 1014.1
20260901050324 70 155 0.0 0.0 0.00 0.00 0.00 39 1014.1
20260901045816 71 155 0.0 0.0 0.00 0.00 0.00 39 1014.1
20260901045327 71 155 0.0 0.0 0.00 0.00 0.00 38 1014.1
20260901044839 72 155 0.0 0.0 0.00 0.00 0.00 38 1014.1
20260901044330 72 155 0.0 0.0 0.00 0.00 0.00 38 1014.1
20260901043843 72 155 0.0 0.0 0.00 0.00 0.00 37 1014.1
20260901043313 73 155 0.0 0.0 0.00 0.00 0.00 36 1014.1
20260901042825 73 155 0.0 0.0 0.00 0.00 0.00 36 1014.1
20260901042321 74 155 0.0 0.0 0.00 0.00 0.00 35 1014.0
20260901041812 74 155 0.0 0.0 0.00 0.00 0.00 35 1014.0
20260901041323 74 155 0.0 0.0 0.00 0.00 0.00 35 1013.9
20260901040814 74 155 0.0 0.0 0.00 0.00 0.00 35 1013.8
20260901040325 75 155 0.0 0.0 0.00 0.00 0.00 35 1013.8
20260901035817 75 155 0.0 0.0 0.00 0.00 0.00 35 1013.7
20260901035330 75 155 0.0 0.0 0.00 0.00 0.00 35 1013.7
20260901034823 76 155 0.0 0.0 0.00 0.00 0.00 33 1013.7
20260901034314 76 155 0.0 2.0 0.00 0.00 0.00 33 1013.5
20260901033824 76 79 0.0 3.0 0.00 0.00 0.00 32 1013.4
20260901033339 76 210 0.0 0.0 0.00 0.00 0.00 29 1013.4
20260901032830 76 210 0.0 0.0 0.00 0.00 0.00 29 1013.3
20260901032343 77 210 0.0 1.0 0.00 0.00 0.00 27 1013.4
20260901031811 77 210 0.0 1.0 0.00 0.00 0.00 27 1013.3
20260901031343 77 210 0.0 1.0 0.00 0.00 0.00 27 1013.3
20260901030813 78 210 0.0 1.0 0.00 0.00 0.00 28 1013.3
20260901030324 78 185 0.0 1.0 0.00 0.00 0.00 28 1013.3
20260901025814 78 146 0.0 0.0 0.00 0.00 0.00 29 1013.2
20260901025325 79 146 0.0 2.0 0.00 0.00 0.00 28 1013.1
20260901024817 79 110 0.0 2.0 0.00 0.00 0.00 29 1013.0
20260901024330 79 143 0.0 2.0 0.00 0.00 0.00 29 1013.0
20260901023825 80 176 0.0 5.0 0.00 0.00 0.00 28 1012.9
20260901023316 80 221 1.0 5.0 0.00 0.00 0.00 28 1012.7
20260901022829 80 212 3.0 6.0 0.00 0.00 0.00 28 1012.5
20260901022320 81 207 3.0 6.0 0.00 0.00 0.00 27 1012.5
20260901021811 81 210 0.0 5.0 0.00 0.00 0.00 26 1012.5
20260901021323 82 192 1.0 5.0 0.00 0.00 0.00 24 1012.4
20260901020813 82 217 2.0 6.0 0.00 0.00 0.00 23 1012.3
20260901020324 82 196 1.0 9.0 0.00 0.00 0.00 23 1012.3
20260901015819 83 248 2.0 9.0 0.00 0.00 0.00 23 1012.2
20260901015351 83 203 5.0 9.0 0.00 0.00 0.00 23 1012.1
20260901014822 83 219 4.0 11.0 0.00 0.00 0.00 22 1012.1
20260901014334 84 231 6.0 11.0 0.00 0.00 0.00 20 1012.1
20260901013824 84 214 4.0 10.0 0.00 0.00 0.00 22 1012.0
20260901013316 84 221 4.0 8.0 0.00 0.00 0.00 22 1012.1
20260901012828 84 172 2.0 11.0 0.00 0.00 0.00 21 1012.1
20260901012319 85 233 5.0 11.0 0.00 0.00 0.00 23 1012.1
20260901011811 85 219 6.0 11.0 0.00 0.00 0.00 24 1012.1
20260901011322 86 232 3.0 10.0 0.00 0.00 0.00 27 1012.1
20260901010818 86 236 3.0 11.0 0.00 0.00 0.00 27 1012.1
20260901010330 87 226 4.0 12.0 0.00 0.00 0.00 25 1012.1
20260901005822 87 234 3.0 12.0 0.00 0.00 0.00 25 1012.1
20260901005312 87 219 5.0 12.0 0.00 0.00 0.00 25 1012.1
20260901004824 88 238 4.0 9.0 0.00 0.00 0.00 25 1012.0
20260901004314 88 205 5.0 14.0 0.00 0.00 0.00 24 1012.0
20260901003825 88 186 7.0 14.0 0.00 0.00 0.00 23 1011.9
20260901003317 89 212 6.0 12.0 0.00 0.00 0.00 23 1011.8
20260901002828 89 225 4.0 13.0 0.00 0.00 0.00 22 1011.9
20260901002324 89 231 6.0 11.0 0.00 0.00 0.00 22 1011.9
20260901001815 89 216 4.0 10.0 0.00 0.00 0.00 21 1011.8
20260901001326 89 195 5.0 11.0 0.00 0.00 0.00 20 1011.9
20260901000817 89 240 7.0 12.0 0.00 0.00 0.00 20 1011.8
20260901000328 90 240 6.0 12.0 0.00 0.00 0.00 21 1011.8
20260831235838 90 221 5.0 11.0 0.00 0.00 0.00 20 1011.8
20260831235328 90 204 6.0 14.0 0.00 0.00 0.00 19 1011.8
20260831234820 91 257 7.0 14.0 0.00 0.00 0.00 21 1011.8
20260831234351 90 201 4.0 15.0 0.00 0.00 0.00 22 1011.8
20260831233843 90 214 9.0 15.0 0.00 0.00 0.00 21 1011.8
20260831233313 91 133 4.0 13.0 0.00 0.00 0.00 22 1011.7
20260831232845 91 193 7.0 15.0 0.00 0.00 0.00 23 1011.8
20260831232318 91 238 7.0 15.0 0.00 0.00 0.00 24 1011.8
20260831231830 91 236 7.0 11.0 0.00 0.00 0.00 24 1011.9
20260831231321 91 227 3.0 13.0 0.00 0.00 0.00 25 1011.8
20260831230831 91 205 4.0 11.0 0.00 0.00 0.00 26 1011.8
20260831230322 91 241 3.0 13.0 0.00 0.00 0.00 26 1011.8
20260831225833 91 201 4.0 13.0 0.00 0.00 0.00 25 1011.9
20260831225343 92 168 4.0 11.0 0.00 0.00 0.00 25 1011.9
20260831224813 91 209 4.0 9.0 0.00 0.00 0.00 26 1011.9
20260831224326 91 201 5.0 10.0 0.00 0.00 0.00 26 1012.0
20260831223838 91 217 6.0 10.0 0.00 0.00 0.00 26 1012.1
20260831223313 91 207 3.0 12.0 0.00 0.00 0.00 26 1012.1
20260831222844 91 193 4.0 11.0 0.00 0.00 0.00 27 1012.0
20260831222316 91 211 6.0 10.0 0.00 0.00 0.00 26 1012.3
20260831221827 91 269 5.0 12.0 0.00 0.00 0.00 26 1012.3
20260831221318 91 216 6.0 12.0 0.00 0.00 0.00 25 1012.3
20260831220830 91 181 7.0 14.0 0.00 0.00 0.00 25 1012.3
20260831220321 91 212 4.0 14.0 0.00 0.00 0.00 25 1012.4
20260831215814 92 254 5.0 10.0 0.00 0.00 0.00 24 1012.3
20260831215326 91 245 6.0 12.0 0.00 0.00 0.00 24 1012.3
20260831214842 92 222 7.0 12.0 0.00 0.00 0.00 23 1012.3
20260831214313 92 220 4.0 14.0 0.00 0.00 0.00 23 1012.4
20260831213824 92 227 7.0 14.0 0.00 0.00 0.00 22 1012.4
20260831213314 92 308 5.0 11.0 0.00 0.00 0.00 22 1012.5
20260831212825 92 314 3.0 12.0 0.00 0.00 0.00 22 1012.5
20260831212336 92 255 4.0 11.0 0.00 0.00 0.00 22 1012.5
20260831211826 92 281 4.0 14.0 0.00 0.00 0.00 22 1012.7
20260831211335 92 257 4.0 14.0 0.00 0.00 0.00 20 1012.7
20260831210825 92 259 5.0 11.0 0.00 0.00 0.00 21 1012.7
20260831210317 92 271 4.0 12.0 0.00 0.00 0.00 19 1012.8
20260831205812 92 235 6.0 12.0 0.00 0.00 0.00 19 1012.8
20260831205324 93 278 6.0 11.0 0.00 0.00 0.00 18 1012.8
20260831204835 92 242 3.0 7.0 0.00 0.00 0.00 16 1012.8
20260831204326 92 293 3.0 6.0 0.00 0.00 0.00 16 1013.0
20260831203816 92 260 3.0 9.0 0.00 0.00 0.00 16 1013.0
20260831203328 92 250 3.0 11.0 0.00 0.00 0.00 17 1013.0
20260831202819 93 212 6.0 11.0 0.00 0.00 0.00 17 1012.9
20260831202330 92 155 2.0 8.0 0.00 0.00 0.00 19 1012.8
20260831201821 92 185 1.0 8.0 0.00 0.00 0.00 18 1012.8
20260831201313 91 228 4.0 11.0 0.00 0.00 0.00 17 1012.9
20260831200827 91 226 3.0 11.0 0.00 0.00 0.00 18 1012.9
20260831200319 91 226 6.0 11.0 0.00 0.00 0.00 19 1013.1
20260831195830 92 235 2.0 10.0 0.00 0.00 0.00 22 1013.0
20260831195323 91 226 3.0 8.0 0.00 0.00 0.00 22 1013.1
20260831194813 91 250 4.0 7.0 0.00 0.00 0.00 22 1013.0
20260831194325 90 225 3.0 10.0 0.00 0.00 0.00 22 1013.1
20260831193815 90 203 3.0 10.0 0.00 0.00 0.00 18 1013.2
20260831193327 90 261 1.0 8.0 0.00 0.00 0.00 20 1013.1
20260831192822 89 225 2.0 8.0 0.00 0.00 0.00 22 1013.2
20260831192335 89 288 3.0 9.0 0.00 0.00 0.00 24 1013.3
20260831191845 90 257 4.0 6.0 0.00 0.00 0.00 24 1013.2
20260831191316 89 209 2.0 8.0 0.00 0.00 0.00 25 1013.4
20260831190827 89 264 4.0 8.0 0.00 0.00 0.00 26 1013.5
20260831190320 89 243 2.0 8.0 0.00 0.00 0.00 27 1013.3
20260831185831 88 268 3.0 8.0 0.00 0.00 0.00 27 1013.4
20260831185343 88 248 1.0 10.0 0.00 0.00 0.00 28 1013.5
20260831184812 88 227 4.0 10.0 0.00 0.00 0.00 29 1013.7
20260831184324 88 210 1.0 6.0 0.00 0.00 0.00 31 1013.7
20260831183815 87 190 2.0 6.0 0.00 0.00 0.00 32 1013.8
20260831183347 86 84 2.0 6.0 0.00 0.00 0.00 30 1013.7
20260831182821 87 311 3.0 5.0 0.00 0.00 0.00 32 1013.7
20260831182331 86 248 2.0 5.0 0.00 0.00 0.00 29 1013.8
20260831181842 86 220 2.0 5.0 0.00 0.00 0.00 31 1013.8
20260831181311 85 248 1.0 5.0 0.00 0.00 0.00 37 1013.8
20260831180822 84 251 3.0 5.0 0.00 0.00 0.00 37 1013.8
20260831180314 84 249 2.0 7.0 0.00 0.00 0.00 35 1013.8
20260831175826 84 286 3.0 7.0 0.00 0.00 0.00 37 1013.9
20260831175318 84 203 3.0 7.0 0.00 0.00 0.00 35 1013.9
20260831174849 84 193 3.0 6.0 0.00 0.00 0.00 38 1013.9
20260831174319 84 195 2.0 4.0 0.00 0.00 0.00 40 1013.9
20260831173813 83 258 1.0 3.0 0.00 0.00 0.00 40 1013.9
20260831173324 82 142 2.0 4.0 0.00 0.00 0.00 42 1013.9
20260831172816 82 255 2.0 4.0 0.00 0.00 0.00 45 1013.9
20260831172328 81 245 1.0 5.0 0.00 0.00 0.00 46 1013.9
20260831171819 81 194 1.0 4.0 0.00 0.00 0.00 48 1013.9
20260831171329 80 234 1.0 4.0 0.00 0.00 0.00 48 1013.9
20260831170820 79 34 0.0 4.0 0.00 0.00 0.00 52 1013.8
20260831170331 79 295 2.0 6.0 0.00 0.00 0.00 54 1013.7
20260831165824 78 325 2.0 6.0 0.00 0.00 0.00 55 1013.7
20260831165340 78 279 1.0 4.0 0.00 0.00 0.00 57 1013.7
20260831164811 77 296 1.0 4.0 0.00 0.00 0.00 58 1013.7
20260831164324 77 306 2.0 4.0 0.00 0.00 0.00 59 1013.7
20260831163835 77 300 0.0 4.0 0.00 0.00 0.00 60 1013.8
20260831163344 76 45 1.0 4.0 0.00 0.00 0.00 61 1013.7
20260831162814 75 307 0.0 3.0 0.00 0.00 0.00 62 1013.7
20260831162325 75 306 1.0 4.0 0.00 0.00 0.00 62 1013.7
20260831161836 75 325 1.0 5.0 0.00 0.00 0.00 62 1013.7
20260831161326 74 300 3.0 5.0 0.00 0.00 0.00 62 1013.8
20260831160817 74 282 0.0 4.0 0.00 0.00 0.00 60 1013.7
20260831160349 74 302 2.0 4.0 0.00 0.00 0.00 59 1013.7
20260831155840 73 338 1.0 4.0 0.00 0.00 0.00 59 1013.7
20260831155313 73 297 2.0 4.0 0.00 0.00 0.00 59 1013.7
20260831154824 73 25 1.0 5.0 0.00 0.00 0.00 61 1013.8
20260831154316 73 313 2.0 5.0 0.00 0.00 0.00 59 1013.8
20260831153828 73 312 2.0 4.0 0.00 0.00 0.00 57 1013.7
20260831153320 73 317 1.0 4.0 0.00 0.00 0.00 55 1013.8
20260831152831 73 285 0.0 2.0 0.00 0.00 0.00 51 1013.7
20260831152322 73 264 0.0 1.0 0.00 0.00 0.00 48 1013.6
20260831151813 73 241 0.0 0.0 0.00 0.00 0.00 51 1013.9
20260831151325 73 214 0.0 0.0 0.00 0.00 0.00 50 1013.5
20260831150821 73 198 0.0 0.0 0.00 0.00 0.00 50 1013.5
20260831150313 73 94 0.0 0.0 0.00 0.00 0.00 51 1013.5
20260831145826 72 94 0.0 0.0 0.00 0.00 0.00 54 1013.5
20260831145318 71 94 0.0 0.0 0.00 0.00 0.00 55 1013.5
20260831144829 72 94 0.0 0.0 0.00 0.00 0.00 53 1013.4
20260831144322 72 94 0.0 0.0 0.00 0.00 0.00 55 1013.5
20260831143813 70 94 0.0 0.0 0.00 0.00 0.00 58 1013.5
20260831143324 69 94 0.0 0.0 0.00 0.00 0.00 59 1013.4
20260831142815 67 94 0.0 0.0 0.00 0.00 0.00 62 1013.4
20260831142311 65 94 0.0 0.0 0.00 0.00 0.00 64 1013.3
20260831141823 64 94 0.0 0.0 0.00 0.00 0.00 63 1013.3
20260831141335 63 94 0.0 0.0 0.00 0.00 0.00 66 1013.3
20260831140845 61 94 0.0 0.0 0.00 0.00 0.00 67 1013.2
20260831140316 61 94 0.0 0.0 0.00 0.00 0.00 69 1013.2
20260831135828 61 94 0.0 0.0 0.00 0.00 0.00 69 1013.2
20260831135319 61 94 0.0 0.0 0.00 0.00 0.00 69 1013.1
20260831134851 61 94 0.0 0.0 0.00 0.00 0.00 68 1013.0
20260831134323 61 94 0.0 0.0 0.00 0.00 0.00 68 1013.0
20260831133814 61 94 0.0 0.0 0.00 0.00 0.00 69 1013.0
20260831133326 61 94 0.0 0.0 0.00 0.00 0.00 70 1013.0
20260831132820 61 94 0.0 0.0 0.00 0.00 0.00 70 1012.9
20260831132330 61 94 0.0 0.0 0.00 0.00 0.00 69 1012.9
20260831131841 61 94 0.0 0.0 0.00 0.00 0.00 69 1012.8
20260831131330 61 94 0.0 0.0 0.00 0.00 0.00 69 1012.9
20260831130822 61 94 0.0 0.0 0.00 0.00 0.00 70 1012.9
20260831130333 61 94 0.0 0.0 0.00 0.00 0.00 71 1012.8
20260831125823 61 94 0.0 0.0 0.00 0.00 0.00 71 1012.9
20260831125314 61 94 0.0 0.0 0.00 0.00 0.00 70 1013.0
20260831124825 61 94 0.0 0.0 0.00 0.00 0.00 70 1012.8
20260831124316 62 94 0.0 0.0 0.00 0.00 0.00 70 1012.7
20260831123811 62 94 0.0 0.0 0.00 0.00 0.00 70 1012.7
20260831123323 62 94 0.0 0.0 0.00 0.00 0.00 68 1012.7
20260831122815 62 94 0.0 0.0 0.00 0.00 0.00 68 1012.8